SHIJIAN-6 02B (SJ-6 02B)

Last updated on Thu Oct 30 2025 00:03:36 GMT+0000 (Coordinated Universal Time)

1 29506U 06046B 25302.53933914 .00001886 00000+0 15497-3 0 9998 2 29506 97.6904 328.6365 0014064 108.0577 252.2180 15.00309763 36143
UTC large
Height (km)
Speed (km/s)
/
Latitude / Longitude
Inclination (degrees)
Orbital Period (minutes)
Azimuth
Elevation
Range (km)
Doppler Factor

Next 0 passes for location: London (51.5072 / 0.1276)

Sorry there are no passes over London.